This is the latest recevied weather packets stored in our database for station/object F4GQK-13. If no packets are shown the sender has not sent any weather packets the latest 10 day(s).
| Time | Temp. | Humidity | Pressure | Rain* | Wind** | Luminosity | Snow |
|---|---|---|---|---|---|---|---|
| 1777795805 | 13.89° C | 97% | 1013.9 hPa | 0.51 mm | - | 87 W/m² | - |
| 1777795504 | 13.89° C | 97% | 1014 hPa | 0.76 mm | - | 76 W/m² | - |
| 1777795205 | 13.89° C | 97% | 1013.9 hPa | 0.76 mm | - | 78 W/m² | - |
| 1777794905 | 13.89° C | 97% | 1014 hPa | 0.76 mm | - | 83 W/m² | - |
| 1777794605 | 13.89° C | 97% | 1014 hPa | 0.76 mm | - | 85 W/m² | - |
| 1777794305 | 13.89° C | 97% | 1013.9 hPa | 0.76 mm | - | 42 W/m² | - |
| 1777794004 | 13.89° C | 97% | 1013.9 hPa | 0.76 mm | - | 37 W/m² | - |
| 1777793705 | 13.89° C | 97% | 1013.8 hPa | 0.76 mm | - | 28 W/m² | - |
| 1777793405 | 13.89° C | 97% | 1013.9 hPa | 0.76 mm | - | 32 W/m² | - |
| 1777793102 | 13.89° C | 97% | 1013.9 hPa | 1.02 mm | - | 34 W/m² | - |
| 1777792805 | 13.89° C | 97% | 1013.7 hPa | 1.02 mm | - | 37 W/m² | - |
| 1777792505 | 13.89° C | 97% | 1013.8 hPa | 1.27 mm | - | 38 W/m² | - |
| 1777792204 | 13.89° C | 97% | 1013.7 hPa | 1.52 mm | - | 38 W/m² | - |
| 1777791905 | 13.89° C | 97% | 1013.6 hPa | 1.78 mm | - | 43 W/m² | - |
| 1777791605 | 13.89° C | 97% | 1013.8 hPa | 1.78 mm | - | 42 W/m² | - |
| 1777791305 | 13.89° C | 97% | 1013.7 hPa | 2.03 mm | - | 34 W/m² | - |
| 1777791005 | 13.89° C | 97% | 1013.8 hPa | 2.03 mm | - | 35 W/m² | - |
| 1777790705 | 13.89° C | 97% | 1013.8 hPa | 2.29 mm | - | 32 W/m² | - |
| 1777790404 | 13.89° C | 97% | 1013.8 hPa | 2.29 mm | - | 31 W/m² | - |
| 1777790105 | 13.89° C | 97% | 1013.6 hPa | 2.29 mm | - | 37 W/m² | - |
| 1777789805 | 13.89° C | 97% | 1013.7 hPa | 2.03 mm | - | 43 W/m² | - |
| 1777789505 | 13.89° C | 97% | 1013.8 hPa | 2.29 mm | - | 42 W/m² | - |
| 1777789205 | 13.89° C | 97% | 1013.7 hPa | 2.03 mm | - | 50 W/m² | - |
| 1777788905 | 13.89° C | 97% | 1013.4 hPa | 2.03 mm | - | 36 W/m² | - |
| 1777788605 | 13.89° C | 96% | 1013.5 hPa | 2.03 mm | - | 28 W/m² | - |
* Rain latest hour (hover to see other rain measurements)
** Current wind speed in m/s (hover to see current wind gust speed)